Вернуться в каталог

COSMOS 1275 DEB

АктивенPO
NORAD 12749·DEBRIS·🇷🇺 Russia

Запущен Jun 4, 1981 с Plesetsk Cosmodrome

Loading…

Ближайшие Пролёты (ближайшие 24 часа)

TLE

СвежийSource: Space-Track

Эпоха: Sep 13, 2026, 18:38 UTC

1 12749U 81053CS  26256.77648677  .00000316  00000-0  30437-3 0  9993
2 12749  82.8142   8.2308 0060813 293.3388 229.9383 13.76396165258216

Отслеживайте COSMOS 1275 DEB в реальном времени с AllMySat

Download on the App Store